Preview of NWS' New Version of Forecast
This preview is not operational and should not be used for support decisions.

Regional Weather Roundup (RWR)

Issued by National Weather Service (NWS)

                            
000
ASUS43 KTOP 211408
RWRKS 

WEATHER ROUNDUP FOR KANSAS
NATIONAL WEATHER SERVICE GOODLAND KS
900 AM CDT SUN APR 21 2019

NOTE:  "FAIR" INDICATES FEW OR NO CLOUDS BELOW 12,000 FEET WITH NO
SIGNIFICANT WEATHER AND/OR OBSTRUCTIONS TO VISIBILITY.

KSZ001>006-013>018-027>032-041>047-211500-
NORTHWEST KANSAS
  
CITY           SKY/WX    TMP DP  RH WIND       PRES   REMARKS
GOODLAND       SUNNY     60  41  49 NW20      29.65R                  
HAYS           MOSUNNY   62  50  64 S16       29.64S                  
HILL CITY      MOSUNNY   62  47  57 S12       29.61S                  
RUSSELL        CLOUDY    62  49  62 S23G29    29.63S                  
$$

KSZ061>065-074>080-084>089-211500-
SOUTHWEST KANSAS
  
CITY           SKY/WX    TMP DP  RH WIND       PRES   REMARKS
DODGE CITY     SUNNY     62  45  53 S17       29.69R                  
ELKHART        SUNNY     65  38  37 W9        29.76S                  
GARDEN CITY    SUNNY     66  37  34 W14G22    29.67S                  
GREAT BEND     MOSUNNY   63  51  65 S23       29.67F                  
LIBERAL        SUNNY     61  39  44 W9        29.72S                  
PRATT          MOSUNNY   64  50  60 S23G30    29.70F                  
$$

KSZ066>073-081>083-090>101-211500-
SOUTHEAST KANSAS
  
CITY           SKY/WX    TMP DP  RH WIND       PRES   REMARKS
CHANUTE        CLOUDY    67  50  54 S20G26    29.90R                  
COFFEYVILLE    SUNNY     67  50  54 S15G28    29.89S                  
HUTCHINSON     SUNNY     62  51  67 S16       29.73S                  
MEDICINE LODGE   N/A     63  52  67 SE10G25   29.72S                  
NEWTON         PTSUNNY   65  51  60 S21G29    29.77S                  
PARSONS        SUNNY     65  50  58 S9G18     29.91S                  
WICHITA INTL   PTSUNNY   64  51  62 S23G31    29.76R                  
WICHITA JABRA  MOSUNNY   63  51  65 S23G37    29.77S                  
WICHITA MCCONL CLOUDY    64  51  62 SE22G29   29.77S                  
WINFIELD       CLOUDY    64  51  62 S24G35    29.80F                  
$$

KSZ007>012-019>026-033>040-048>060-102>105-211500-
NORTHEAST KANSAS
  
CITY           SKY/WX    TMP DP  RH WIND       PRES   REMARKS
CONCORDIA      CLOUDY    65  50  58 S16G24    29.69F                  
EMPORIA        CLOUDY    62  51  67 S26G37    29.79F                  
LAWRENCE       MOSUNNY   68  50  52 S21G32    29.81F                  
MANHATTAN      CLOUDY    68  49  50 S16G29    29.73S                  
MARYSVILLE     CLOUDY    68  50  52 S18G25    29.72F                  
OLATHE IND     SUNNY     65  51  60 S16G31    29.85F                  
OLATHE EXE     SUNNY     64  49  57 S16G29    29.86F                  
SALINA         MOSUNNY   66  50  56 S24G41    29.70R                  
TOPEKA BILLARD CLOUDY    67  49  52 S22G35    29.76F                  
TOPEKA FORBES  PTSUNNY   66  49  54 S22G35    29.77S                  
$$